When you browse on this site, cookies collect data to enhance your experience and personalize the content and advertising you see.
Visit our Privacy Policy to learn more. By continuing to use the site, you agree to this use of cookies and data.
  • In United Kingdom
  • List of Countries
  • For 7 days
  • Water Temperature
  • Satellite Maps
  • Weather Map
  • Weather Widgets
  • user-avatar
    Login

    Hourly Weather Zgurovka

    Today, 21 November, Wednesday

    Time Temperature Precipitation Wind Pressure Humidity
    00:00 -4°C° 0 mm 2 mps 758 mmHg 91%
    01:00 -5°C° 0 mm 2 mps 758 mmHg 91%
    02:00 -2°C° 0 mm 1 mps 758 mmHg 90%
    03:00 -4°C° 0 mm 2 mps 758 mmHg 89%
    04:00 -4°C° 0 mm 2 mps 758 mmHg 89%
    05:00 -4°C° 0 mm 2 mps 758 mmHg 89%
    06:00 -4°C° 0 mm 2 mps 758 mmHg 88%
    07:00 -3°C° 0 mm 2 mps 758 mmHg 87%
    08:00 -3°C° 0 mm 2 mps 758 mmHg 85%
    09:00 -3°C° 0 mm 2 mps 758 mmHg 81%
    10:00 -2°C° 0 mm 2 mps 758 mmHg 77%
    11:00 -2°C° 0 mm 2 mps 758 mmHg 73%
    12:00 -2°C° 0 mm 2 mps 757 mmHg 74%
    13:00 -2°C° 0 mm 2 mps 757 mmHg 74%
    14:00 -2°C° 0 mm 2 mps 757 mmHg 75%
    15:00 -3°C° 0 mm 2 mps 757 mmHg 79%
    16:00 -3°C° 0 mm 2 mps 757 mmHg 84%
    17:00 -4°C° 0 mm 2 mps 757 mmHg 88%
    18:00 -4°C° 0 mm 2 mps 757 mmHg 89%
    19:00 -5°C° 0 mm 2 mps 757 mmHg 90%
    20:00 -5°C° 0 mm 2 mps 757 mmHg 91%
    21:00 -5°C° 0 mm 2 mps 757 mmHg 92%
    22:00 -5°C° 0 mm 2 mps 757 mmHg 92%
    23:00 -5°C° 0 mm 2 mps 757 mmHg 92%

    Tomorrow, 22 November, Thursday

    Time Temperature Precipitation Wind Pressure Humidity
    00:00 -6°C° 0 mm 2 mps 757 mmHg 92%
    01:00 -6°C° 0 mm 2 mps 757 mmHg 92%
    02:00 -6°C° 0 mm 2 mps 757 mmHg 92%
    03:00 -6°C° 0 mm 2 mps 757 mmHg 92%
    04:00 -6°C° 0 mm 2 mps 757 mmHg 92%
    05:00 -7°C° 0 mm 2 mps 757 mmHg 92%
    06:00 -7°C° 0 mm 2 mps 757 mmHg 92%
    07:00 -7°C° 0 mm 2 mps 757 mmHg 92%
    08:00 -7°C° 0 mm 2 mps 757 mmHg 92%
    09:00 -6°C° 0 mm 2 mps 757 mmHg 88%
    10:00 -5°C° 0 mm 2 mps 757 mmHg 85%
    11:00 -4°C° 0 mm 2 mps 757 mmHg 81%
    12:00 -5°C° 0 mm 3 mps 756 mmHg 80%
    13:00 -4°C° 0 mm 3 mps 756 mmHg 79%
    14:00 -4°C° 0 mm 3 mps 756 mmHg 78%
    15:00 -5°C° 0 mm 3 mps 756 mmHg 82%
    16:00 -5°C° 0 mm 3 mps 756 mmHg 85%
    17:00 -6°C° 0 mm 3 mps 755 mmHg 88%
    18:00 -6°C° 0 mm 3 mps 755 mmHg 88%
    19:00 -6°C° 0 mm 3 mps 755 mmHg 88%
    20:00 -7°C° 0 mm 3 mps 755 mmHg 87%
    21:00 -8°C° 0 mm 4 mps 755 mmHg 88%
    22:00 -8°C° 0 mm 4 mps 755 mmHg 89%
    23:00 -8°C° 0 mm 4 mps 755 mmHg 89%

    Day after tomorrow, 23 November, Friday

    Time Temperature Precipitation Wind Pressure Humidity
    00:00 -8°C° 0 mm 4 mps 755 mmHg 90%
    01:00 -8°C° 0 mm 4 mps 756 mmHg 91%
    02:00 -9°C° 0 mm 4 mps 756 mmHg 92%
    03:00 -7°C° 0 mm 3 mps 756 mmHg 92%
    04:00 -7°C° 0 mm 3 mps 756 mmHg 92%
    05:00 -7°C° 0 mm 3 mps 756 mmHg 92%
    06:00 -7°C° 0 mm 3 mps 757 mmHg 92%
    07:00 -7°C° 0 mm 3 mps 757 mmHg 93%
    08:00 -6°C° 0 mm 2 mps 758 mmHg 93%
    09:00 -5°C° 0 mm 2 mps 758 mmHg 90%
    10:00 -4°C° 0 mm 2 mps 758 mmHg 88%
    11:00 -3°C° 0 mm 2 mps 759 mmHg 85%
    12:00 -3°C° 0 mm 2 mps 759 mmHg 84%
    13:00 -2°C° 0 mm 2 mps 759 mmHg 84%
    14:00 0°C° 0 mm 1 mps 759 mmHg 84%
    15:00 -1°C° 0 mm 1 mps 759 mmHg 87%
    16:00 -2°C° 0 mm 1 mps 759 mmHg 90%
    17:00 -3°C° 0 mm 1 mps 760 mmHg 93%
    18:00 -4°C° 0 mm 0 mps 760 mmHg 93%
    19:00 -4°C° 0 mm 0 mps 760 mmHg 93%
    20:00 -4°C° 0 mm 0 mps 760 mmHg 93%
    21:00 -3°C° 0 mm 1 mps 760 mmHg 93%
    22:00 -3°C° 0 mm 1 mps 760 mmHg 94%
    23:00 -5°C° 0 mm 2 mps 760 mmHg 94%

    24 November, Saturday

    Time Temperature Precipitation Wind Pressure Humidity
    00:00 -5°C° 0 mm 2 mps 760 mmHg 94%
    01:00 -6°C° 0 mm 2 mps 760 mmHg 94%
    02:00 -7°C° 0 mm 3 mps 759 mmHg 95%
    03:00 -7°C° 0 mm 3 mps 759 mmHg 94%
    04:00 -7°C° 0 mm 3 mps 758 mmHg 94%
    05:00 -7°C° 0 mm 3 mps 758 mmHg 94%
    06:00 -7°C° 0 mm 3 mps 758 mmHg 93%
    07:00 -8°C° 0 mm 4 mps 758 mmHg 93%
    08:00 -7°C° 0 mm 4 mps 757 mmHg 92%
    09:00 -7°C° 0 mm 4 mps 757 mmHg 89%
    10:00 -5°C° 0 mm 4 mps 756 mmHg 86%
    11:00 -6°C° 0 mm 5 mps 756 mmHg 83%
    12:00 -5°C° 0 mm 4 mps 756 mmHg 80%
    13:00 -4°C° 0 mm 4 mps 755 mmHg 78%
    14:00 -4°C° 0 mm 4 mps 754 mmHg 76%
    15:00 -4°C° 0 mm 4 mps 754 mmHg 79%
    16:00 -5°C° 0 mm 4 mps 754 mmHg 82%
    17:00 -5°C° 0 mm 4 mps 753 mmHg 85%
    18:00 -7°C° 0 mm 4 mps 753 mmHg 86%
    19:00 -7°C° 0 mm 4 mps 753 mmHg 87%
    20:00 -7°C° 0 mm 4 mps 753 mmHg 87%
    21:00 -7°C° 0 mm 4 mps 753 mmHg 89%
    22:00 -5°C° 0 mm 4 mps 752 mmHg 90%
    23:00 -5°C° 0 mm 4 mps 752 mmHg 92%

    25 November, Sunday

    Time Temperature Precipitation Wind Pressure Humidity
    00:00 -5°C° 0 mm 4 mps 752 mmHg 93%
    01:00 -5°C° 0 mm 3 mps 751 mmHg 94%
    02:00 -5°C° 0 mm 3 mps 751 mmHg 95%
    03:00 -5°C° 0 mm 3 mps 750 mmHg 95%
    04:00 -5°C° 0 mm 3 mps 750 mmHg 94%
    05:00 -5°C° 0 mm 3 mps 750 mmHg 94%
    06:00 -4°C° 0 mm 3 mps 749 mmHg 93%
    07:00 -4°C° 0 mm 3 mps 749 mmHg 92%
    08:00 -4°C° 0 mm 3 mps 749 mmHg 91%
    09:00 -2°C° 0.1 mm 3 mps 749 mmHg 90%
    10:00 -2°C° 0.1 mm 3 mps 749 mmHg 90%
    11:00 -2°C° 0.1 mm 4 mps 748 mmHg 89%
    12:00 -2°C° 0.1 mm 4 mps 748 mmHg 89%
    13:00 -1°C° 0.1 mm 3 mps 748 mmHg 88%
    14:00 0°C° 0.1 mm 3 mps 747 mmHg 88%
    15:00 0°C° 0.1 mm 3 mps 747 mmHg 90%
    16:00 0°C° 0.1 mm 3 mps 747 mmHg 91%
    17:00 -1°C° 0.1 mm 3 mps 746 mmHg 93%
    18:00 -1°C° 0.1 mm 3 mps 746 mmHg 93%
    19:00 -1°C° 0.1 mm 3 mps 746 mmHg 93%
    20:00 -1°C° 0.1 mm 3 mps 746 mmHg 94%
    21:00 0°C° 0 mm 3 mps 746 mmHg 94%
    22:00 0°C° 0 mm 3 mps 745 mmHg 94%
    23:00 0°C° 0 mm 3 mps 745 mmHg 94%

    26 November, Monday

    Time Temperature Precipitation Wind Pressure Humidity
    00:00 -1°C° 0 mm 3 mps 745 mmHg 94%
    01:00 -1°C° 0 mm 3 mps 745 mmHg 95%
    02:00 -1°C° 0 mm 3 mps 744 mmHg 95%
    03:00 -1°C° 0 mm 3 mps 744 mmHg 96%
    04:00 -1°C° 0 mm 3 mps 744 mmHg 96%
    05:00 -1°C° 0 mm 3 mps 744 mmHg 96%
    06:00 -1°C° 0 mm 3 mps 744 mmHg 96%
    07:00 -1°C° 0 mm 3 mps 744 mmHg 97%
    08:00 0°C° 0 mm 3 mps 744 mmHg 97%
    09:00 0°C° 0 mm 3 mps 744 mmHg 96%
    10:00 0°C° 0 mm 3 mps 744 mmHg 95%
    11:00 +1°C° 0 mm 3 mps 745 mmHg 94%
    12:00 +1°C° 0 mm 3 mps 744 mmHg 93%
    13:00 0°C° 0 mm 3 mps 744 mmHg 91%
    14:00 -1°C° 0 mm 4 mps 744 mmHg 90%
    15:00 -1°C° 0 mm 4 mps 745 mmHg 89%
    16:00 -2°C° 0 mm 4 mps 745 mmHg 88%
    17:00 -2°C° 0 mm 4 mps 745 mmHg 88%
    18:00 -3°C° 0 mm 4 mps 746 mmHg 88%
    19:00 -4°C° 0 mm 5 mps 746 mmHg 88%
    20:00 -4°C° 0 mm 5 mps 746 mmHg 88%
    21:00 -5°C° 0 mm 6 mps 746 mmHg 87%
    22:00 -5°C° 0 mm 6 mps 747 mmHg 85%
    23:00 -6°C° 0 mm 6 mps 747 mmHg 84%
    Show more